Weather History for Abbotsford, BC

Change the Weather History Date:

Friday, January 25, 2013

  Actual Average Record
Temperature  
Mean Temperature 40 °F -  
Max Temperature 46 °F 46 °F 55 °F (2005)
Min Temperature 35 °F 32 °F 15 °F (1997)
Degree Days  
Heating Degree Days 24    
Moisture  
Dew Point 38 °F    
Average Humidity 98    
Maximum Humidity 100    
Minimum Humidity 82    
Precipitation  
Precipitation 0.20 in 0.22 in - ()
Sea Level Pressure  
Sea Level Pressure 30.01 in    
Wind  
Wind Speed 4 mph ()    
Max Wind Speed 9 mph    
Max Gust Speed -    
Visibility 5.9 miles    
Events Fog , Rain    
Averages and records for this station are not official NWS values.
T = Trace of Precipitation, MM = Missing Value Source: Averaged Metar Reports

Daily Weather History Graph

Daily Weather History Graph

Search for Another Location

Airport:

Trip Planner

Search our weather history database for the weather conditions in past years. The results will help you decide how hot, cold, wet, or windy it might be!

Date:

Astronomy

Jan. 25, 2013 Rise Set
Actual Time 7:48 AM PST 4:55 PM PST
Civil Twilight 7:13 AM PST 5:30 PM PST
Nautical Twilight 6:35 AM PST 6:09 PM PST
Astronomical Twilight 5:57 AM PST 6:46 PM PST
Moon 3:58 PM PST (1/25) 6:32 AM PST (1/25)
Length of Visible Light 10h 17m
Length of Day
9h 07m
Waxing Gibbous, 98% of the Moon is Illuminated
Jan 25
Waxing Gibbous
Jan 26
Full
Feb 3
Last Quarter
Feb 9
New
Feb 17
First Quarter

Hourly Weather History & Observations

Time (PST) Temp. Windchill Dew Point Humidity Pressure Visibility Wind Dir Wind Speed Gust Speed Precip Events Conditions
12:00 AM 37.4 °F 33.8 °F 37.4 °F 100% 30.04 in 4.0 mi NNE 4.6 mph - N/A Rain Light Rain
1:00 AM 37.4 °F 33.8 °F 37.4 °F 100% 30.03 in 6.0 mi NE 4.6 mph - N/A Rain Light Rain
2:00 AM 37.4 °F 32.1 °F 37.4 °F 100% 30.04 in 3.0 mi NNE 6.9 mph - N/A Rain Light Rain
3:00 AM 37.4 °F 30.8 °F 37.4 °F 100% 30.03 in 4.0 mi NNE 9.2 mph - N/A Rain Light Rain
4:00 AM 38 °F - 38 °F 98% 30.04 in 5 mi NNE 5.8 mph - - Rain Light Rain Showers
4:00 AM 37.4 °F 32.1 °F 37.4 °F 100% 30.04 in 5.0 mi North 6.9 mph - N/A Rain Light Rain Showers
5:00 AM 37.4 °F 33.8 °F 37.4 °F 100% 30.05 in 5.0 mi ENE 4.6 mph - N/A   Overcast
6:00 AM 37.4 °F 34.9 °F 37.4 °F 100% 30.05 in 7.0 mi ENE 3.5 mph - N/A   Overcast
6:46 AM 37.4 °F 33.8 °F 37.4 °F 100% 30.05 in 4.0 mi North 4.6 mph - N/A   Overcast
7:00 AM 37.4 °F 33.8 °F 37.4 °F 100% 30.05 in 4.0 mi NNE 4.6 mph - N/A   Overcast
8:00 AM 37.4 °F 32.8 °F 37.4 °F 100% 30.06 in 4.0 mi NNE 5.8 mph - N/A   Mostly Cloudy
9:00 AM 37.4 °F 34.9 °F 37.4 °F 100% 30.06 in 3.0 mi NE 3.5 mph - N/A   Scattered Clouds
9:02 AM 37.4 °F - 37.4 °F 100% 30.06 in 1.0 mi NE 2.3 mph - N/A   Scattered Clouds
9:06 AM 37.4 °F 33.8 °F 37.4 °F 100% 30.06 in 0.6 mi East 4.6 mph - N/A   Clear
9:14 AM 37.4 °F 34.9 °F 37.4 °F 100% 30.06 in 0.4 mi NE 3.5 mph - N/A Fog Fog
10:00 AM 37 °F - 37 °F 100% 30.07 in 2 mi NNE 4.6 mph - -   Mist
10:00 AM 37.4 °F 32.8 °F 37.4 °F 100% 30.07 in 2.0 mi North 5.8 mph - N/A   Mostly Cloudy
10:17 AM 37.4 °F 32.1 °F 37.4 °F 100% 30.07 in 10.0 mi NNE 6.9 mph - N/A   Mostly Cloudy
11:00 AM 39.2 °F - 39.2 °F 100% 30.06 in 10.0 mi Calm Calm - N/A   Mostly Cloudy
12:00 PM 41.0 °F 38.0 °F 41.0 °F 100% 30.04 in 20.0 mi NNE 4.6 mph - N/A   Mostly Cloudy
12:20 PM 42.8 °F 40.1 °F 41.0 °F 93% 30.04 in 20.0 mi NE 4.6 mph - N/A Rain Light Rain Showers
12:50 PM 42.8 °F 40.1 °F 41.0 °F 93% 30.02 in 20.0 mi North 4.6 mph - N/A   Mostly Cloudy
1:00 PM 44.6 °F 41.4 °F 41.0 °F 87% 30.02 in 20.0 mi North 5.8 mph - N/A   Mostly Cloudy
2:00 PM 44.6 °F - 41.0 °F 87% 30.00 in 20.0 mi ENE 2.3 mph - N/A   Mostly Cloudy
3:00 PM 46.4 °F 45.2 °F 42.8 °F 87% 29.99 in 25.0 mi NNE 3.5 mph - N/A   Scattered Clouds
4:00 PM 45 °F - 41 °F 82% 29.98 in 28 mi NNE 4.6 mph - -   Partly Cloudy
4:00 PM 44.6 °F 42.2 °F 41.0 °F 87% 29.98 in 30.0 mi NNE 4.6 mph - N/A   Partly Cloudy
5:00 PM 39.2 °F 34.2 °F 39.2 °F 100% 29.98 in 30.0 mi East 6.9 mph - N/A   Scattered Clouds
6:00 PM 41.0 °F - 41.0 °F 100% 29.97 in 15.0 mi Calm Calm - N/A   Mostly Cloudy
7:00 PM 39.2 °F - 39.2 °F 100% 29.96 in 15.0 mi NNE 2.3 mph - N/A   Mostly Cloudy
7:35 PM 39.2 °F - 39.2 °F 100% 29.95 in 1.5 mi NE 2.3 mph - N/A   Clear
7:40 PM 39.2 °F 37.0 °F 39.2 °F 100% 29.95 in 1.0 mi NNE 3.5 mph - N/A   Clear
7:46 PM 37.4 °F 33.8 °F 37.4 °F 100% 29.95 in 0.4 mi North 4.6 mph - N/A Fog Fog
8:00 PM 39.2 °F 35.0 °F 39.2 °F 100% 29.95 in 0.2 mi NNE 5.8 mph - N/A Fog Fog
8:22 PM 39.2 °F 37.0 °F 39.2 °F 100% 29.95 in 1.5 mi ENE 3.5 mph - N/A   Mostly Cloudy
9:00 PM 37.4 °F 34.9 °F 37.4 °F 100% 29.95 in 1.5 mi ENE 3.5 mph - N/A   Mostly Cloudy
9:20 PM 37.4 °F 33.8 °F 37.4 °F 100% 29.95 in 3.0 mi NNE 4.6 mph - N/A   Mostly Cloudy
9:44 PM 37.4 °F 32.8 °F 37.4 °F 100% 29.94 in 1.5 mi NNE 5.8 mph - N/A   Mostly Cloudy
10:00 PM 37 °F - 37 °F 100% 29.94 in 0 mi NNE 4.6 mph - - Fog Partial Fog
10:00 PM 37.4 °F 33.8 °F 37.4 °F 100% 29.94 in 0.4 mi NNE 4.6 mph - N/A Fog Fog
11:00 PM 37.4 °F 33.8 °F 37.4 °F 100% 29.93 in 0.5 mi North 4.6 mph - N/A Fog Fog
11:39 PM 35.6 °F 31.7 °F 35.6 °F 100% 29.93 in 2.5 mi North 4.6 mph - N/A   Mostly Cloudy